[[{"header":{"parameterUnit":"m.s-1","parameterCategory":1,"la1":30.2991,"la2":30.254,"lo1":-89.0895,"lo2":-89.0444,"dy":0.0017,"dx":0.0017,"nx":28,"ny":28,"refTime":"2025-12-12T03:00:00:Z","depth":0,"parameterNumber":2,"parameterNumberName":"U-component_of_WINDS"},"data":[0,0,0,0,0,0,0,0,0,0,0,0,0,0,0,0,0,0,0,0,0,0,0,0,0,0,0,0,0,0,0,0,0,0,0,0,0,0,0,0,0,0,0,0,0,0,0,0,0,0,0,0,0,0,0,0,0,0,0.5532,0.5533,0,0.5622,0.5623,0.5624,0.5698,0.5699,0.5699,0.57,0.579,0.5792,0.5794,0,0,0,0,0,0,0,0,0,0,0,0,0,0.5423,0.5425,0.5532,0.5533,0.5535,0.5622,0.5623,0.5624,0.5698,0.5699,0.57,0.5701,0.579,0.5792,0.5794,0,0,0,0,0,0,0,0,0,0,0,0,0,0.5487,0.5425,0.5532,0.5582,0.5587,0.5622,0.5623,0.5625,0.5698,0.5699,0.57,0.5701,0.5789,0.5792,0.5794,0.5786,0,0,0.5802,0.5803,0,0,0,0,0,0,0,0,0.5483,0.5491,0.5573,0.5578,0.5585,0.565,0.5618,0.5679,0.5697,0.5656,0.57,0.5702,0.5743,0.5749,0.5763,0.579,0.5794,0.5802,0.5803,0.5805,0.5805,0,0,0,0,0,0,0,0.5479,0.5488,0.5568,0.5574,0.5581,0.5599,0.5609,0.5629,0.5691,0.5659,0.5665,0.5675,0.5746,0.5761,0.5766,0.5795,0.5802,0.5804,0.5806,0.5807,0.5818,0.5817,0,0,0,0,0,0,0.5467,0.5483,0.5565,0.557,0.5536,0.56,0.5612,0.5628,0.5691,0.5702,0.5673,0.5678,0.5756,0.5763,0.5769,0.5763,0.5804,0.5807,0.5808,0.582,0.5818,0.5817,0,0,0,0,0,0,0.5464,0.5474,0.5561,0.5529,0.5541,0.5601,0.5618,0.5629,0.5644,0.5702,0.5713,0.5677,0.5757,0.5766,0.5781,0.5767,0.5808,0.581,0.5821,0.5819,0.5817,0.575,0,0,0,0,0,0,0.5461,0.5472,0.547,0.5528,0.5543,0.5572,0.5617,0.563,0.5648,0.5654,0.5709,0.5719,0.5759,0.5777,0.5783,0.5771,0.5812,0.5822,0.582,0.5818,0.5753,0.5746,0.5739,0,0,0,0,0,0.5457,0.5448,0.547,0.5479,0.5541,0.5571,0.5579,0.5626,0.5647,0.5645,0.5682,0.5717,0.5768,0.5778,0.5786,0.5774,0.5824,0.5821,0.5818,0.5757,0.5747,0.574,0,0,0,0,0,0,0.5386,0.5456,0.5481,0.5491,0.5524,0.5583,0.5582,0.5615,0.5643,0.5647,0.5704,0.5715,0.5724,0.5751,0.5761,0.5769,0.58,0.5799,0.575,0.5742,0.5735,0.5728,0.5814,0,0,0,0,0,0.5372,0.5391,0.5451,0.5453,0.5469,0.5522,0.5537,0.557,0.5607,0.5621,0.566,0.5694,0.5717,0.5731,0.5756,0.5758,0.577,0.5754,0.5747,0.5741,0.5738,0.574,0.5733,0.5808,0.5808,0.5808,0,0,0.5342,0.5383,0.5391,0.544,0.547,0.5487,0.5534,0.5551,0.5564,0.5624,0.564,0.5669,0.5711,0.5719,0.5724,0.5741,0.572,0.5737,0.5732,0.5733,0.5736,0.5729,0.5723,0.5806,0.5807,0.5807,0,0,0.5297,0.533,0.5335,0.5364,0.5409,0.5444,0.5445,0.55,0.5521,0.5539,0.5584,0.56,0.564,0.5667,0.5686,0.5649,0.5682,0.5656,0.5619,0.5619,0.5613,0.5608,0.5593,0.5588,0.5654,0.5654,0.5654,0,0.5254,0.5283,0.5333,0.5347,0.5366,0.5422,0.5427,0.5452,0.5502,0.5514,0.5533,0.5583,0.5615,0.5629,0.562,0.5634,0.5636,0.565,0.561,0.5606,0.5602,0.5588,0.5583,0.565,0.5651,0.5651,0.5651,0,0.5227,0.5246,0.5245,0.5292,0.5311,0.532,0.5371,0.5385,0.5416,0.5449,0.5465,0.5506,0.5539,0.5545,0.5576,0.5563,0.5572,0.56,0.5632,0.559,0.5578,0.5574,0.5645,0.5646,0.5648,0.5648,0,0,0.5139,0.5214,0.5213,0.5234,0.5287,0.5302,0.5313,0.5346,0.5356,0.5389,0.5398,0.543,0.5456,0.5477,0.5511,0.5512,0.5478,0.5539,0.5541,0.5525,0.5465,0.5442,0.5436,0.5501,0.55,0.5499,0.5461,0,0.5101,0.5125,0.517,0.5179,0.5196,0.5249,0.5258,0.5291,0.5322,0.5341,0.5376,0.5396,0.543,0.5442,0.5446,0.5482,0.5467,0.5485,0.5509,0.5509,0.5495,0.543,0.5407,0.5369,0.5457,0.5456,0.5456,0,0.506,0.5089,0.5099,0.515,0.5159,0.5167,0.52,0.5217,0.5255,0.5278,0.5301,0.5339,0.5352,0.5382,0.5401,0.5412,0.5424,0.5443,0.5443,0.5446,0.5478,0.5429,0.5358,0.5351,0.5449,0.545,0.545,0,0.4993,0.5035,0.5046,0.5063,0.5123,0.5127,0.5152,0.5191,0.5208,0.5237,0.5247,0.5277,0.5293,0.5315,0.5358,0.5377,0.5371,0.5406,0.5389,0.5387,0.5384,0.5383,0.5311,0.5394,0.5394,0.5395,0.5395,0,0.4944,0.4948,0.5016,0.5023,0.5028,0.508,0.5084,0.5114,0.5148,0.5161,0.5209,0.5219,0.5277,0.5294,0.5328,0.5337,0.5344,0.5362,0.5371,0.5357,0.5354,0.5364,0.5367,0.5393,0.5393,0.5394,0.5394,0,0.487,0.4916,0.4931,0.4987,0.5001,0.5002,0.5049,0.5057,0.5091,0.5106,0.5113,0.5166,0.5188,0.5234,0.5269,0.5292,0.5292,0.5309,0.5279,0.5284,0.5264,0.5264,0.5195,0.5188,0.5276,0.5275,0.5275,0,0.4835,0.4839,0.4895,0.4907,0.493,0.4949,0.4966,0.5017,0.5033,0.5076,0.5078,0.5104,0.5127,0.516,0.5201,0.5228,0.5245,0.5218,0.5249,0.5234,0.5242,0.524,0.524,0.5211,0.521,0.5209,0.5208,0,0.4768,0.4791,0.4814,0.4844,0.4863,0.4889,0.4918,0.4925,0.4982,0.4997,0.5021,0.5039,0.5074,0.5099,0.5131,0.5156,0.5191,0.5198,0.5195,0.518,0.5162,0.517,0.5259,0.5199,0.52,0.5201,0.5201,0.5201,0.4712,0.4717,0.4757,0.478,0.4807,0.4833,0.4842,0.4877,0.4898,0.4931,0.496,0.498,0.5017,0.5064,0.5087,0.5103,0.512,0.5116,0.5115,0.5113,0.5106,0.5161,0.5109,0.511,0.511,0.511,0.511,0,0.4645,0.4674,0.4695,0.4733,0.4751,0.4783,0.4817,0.4829,0.4846,0.4878,0.49,0.4926,0.495,0.4993,0.502,0.5024,0.5041,0.5029,0.5029,0.5034,0.509,0.5089,0.5016,0.5016,0.5016,0.5016,0.5016,0.5016,0.4613,0.4623,0.465,0.4674,0.4702,0.4723,0.4738,0.4762,0.4787,0.4814,0.4834,0.4862,0.4898,0.4928,0.4951,0.4963,0.497,0.4953,0.4969,0.5021,0.503,0.5038,0.5037,0.4954,0.4954,0.4911,0.4911,0.4911]},{"header":{"parameterUnit":"m.s-1","parameterCategory":1,"la1":30.2991,"la2":30.254,"lo1":-89.0895,"lo2":-89.0444,"dy":0.0017,"dx":0.0017,"nx":28,"ny":28,"refTime":"2025-12-12T03:00:00:Z","depth":0,"parameterNumber":3,"parameterNumberName":"V-component_of_WINDS"},"data":[0,0,0,0,0,0,0,0,0,0,0,0,0,0,0,0,0,0,0,0,0,0,0,0,0,0,0,0,0,0,0,0,0,0,0,0,0,0,0,0,0,0,0,0,0,0,0,0,0,0,0,0,0,0,0,0,0,0,1.3098,1.3097,0,1.3043,1.3042,1.3042,1.3054,1.3055,1.3056,1.3057,1.2996,1.2994,1.2991,0,0,0,0,0,0,0,0,0,0,0,0,0,1.3209,1.3207,1.3098,1.3097,1.3097,1.3043,1.3042,1.3042,1.3054,1.3055,1.3056,1.3057,1.2997,1.2994,1.2991,0,0,0,0,0,0,0,0,0,0,0,0,0,1.3158,1.3207,1.3098,1.3096,1.3096,1.3043,1.3042,1.3041,1.3053,1.3055,1.3057,1.3058,1.2998,1.2994,1.299,1.2935,0,0,1.2978,1.2977,0,0,0,0,0,0,0,0,1.3161,1.3154,1.3097,1.3096,1.3096,1.3057,1.3059,1.3006,1.3053,1.3069,1.3057,1.3059,1.3015,1.301,1.2996,1.2932,1.2929,1.2978,1.2976,1.2974,1.2973,0,0,0,0,0,0,0,1.3165,1.3157,1.3076,1.3097,1.3095,1.3097,1.3091,1.3049,1.3034,1.3068,1.3069,1.3062,1.3015,1.2999,1.2994,1.2928,1.2978,1.2975,1.2972,1.2971,1.2815,1.2813,0,0,0,0,0,0,1.317,1.3159,1.3078,1.3075,1.3133,1.3094,1.3088,1.3068,1.3034,1.3031,1.3061,1.3063,1.3005,1.2999,1.2992,1.2924,1.2974,1.297,1.2968,1.2817,1.2815,1.2813,0,0,0,0,0,0,1.3172,1.3162,1.308,1.3117,1.3107,1.309,1.3068,1.3066,1.3051,1.3029,1.3026,1.3049,1.3006,1.2998,1.2949,1.2922,1.2969,1.2965,1.2819,1.2816,1.2814,1.2787,0,0,0,0,0,0,1.3175,1.3163,1.3143,1.3117,1.3105,1.3039,1.3066,1.3064,1.3045,1.3047,1.3017,1.3013,1.3007,1.2955,1.2945,1.2917,1.2962,1.2821,1.2818,1.2815,1.2791,1.2784,1.2779,0,0,0,0,0,1.3179,1.3137,1.3142,1.3132,1.3079,1.3038,1.3031,1.3026,1.3042,1.3021,1.3007,1.3014,1.2927,1.295,1.2939,1.291,1.2823,1.2819,1.2815,1.2793,1.2785,1.2779,0,0,0,0,0,0,1.3159,1.3133,1.3138,1.3087,1.3065,1.304,1.3013,1.3018,1.2989,1.2992,1.2985,1.2978,1.2929,1.2915,1.294,1.2854,1.2877,1.2871,1.2864,1.2857,1.2851,1.2854,1.2959,0,0,0,0,0,1.3149,1.3118,1.3097,1.3053,1.3042,1.3029,1.3011,1.3009,1.2985,1.2975,1.2958,1.2933,1.2899,1.2878,1.2846,1.2789,1.2782,1.2764,1.2758,1.2753,1.2747,1.2714,1.2705,1.2799,1.2799,1.2799,0,0,1.3126,1.3109,1.309,1.3049,1.3031,1.2998,1.3021,1.2986,1.296,1.2969,1.2922,1.2908,1.288,1.2827,1.2802,1.2813,1.272,1.2748,1.2744,1.2741,1.2709,1.27,1.2692,1.2797,1.2797,1.2798,0,0,1.3069,1.3054,1.3015,1.2997,1.2971,1.2963,1.2953,1.2928,1.292,1.2873,1.2878,1.2848,1.2791,1.2771,1.2753,1.2688,1.2692,1.2677,1.2645,1.2614,1.2606,1.26,1.2575,1.2566,1.2672,1.2672,1.2672,0,1.3044,1.2996,1.2994,1.2958,1.2939,1.2947,1.2907,1.289,1.2853,1.2839,1.2853,1.2782,1.2764,1.2705,1.2689,1.2675,1.2662,1.268,1.2608,1.2601,1.2595,1.2571,1.2562,1.267,1.267,1.267,1.2671,0,1.2966,1.2933,1.2905,1.2871,1.2849,1.2811,1.2802,1.278,1.278,1.277,1.2721,1.27,1.2664,1.265,1.2649,1.259,1.2598,1.261,1.2633,1.2584,1.2562,1.2553,1.2668,1.2668,1.2669,1.2669,0,0,1.2893,1.286,1.2849,1.2834,1.2805,1.2778,1.274,1.2706,1.2687,1.2662,1.2628,1.258,1.2591,1.2571,1.2568,1.254,1.2488,1.2555,1.2554,1.2542,1.242,1.241,1.24,1.2492,1.249,1.2489,1.2422,0,1.2832,1.2766,1.2763,1.2702,1.267,1.2678,1.2645,1.2623,1.2612,1.2583,1.2571,1.2536,1.2554,1.2542,1.2515,1.25,1.2463,1.2505,1.2459,1.2457,1.2464,1.2388,1.2378,1.2315,1.2413,1.2412,1.2411,0,1.2752,1.2725,1.2662,1.2637,1.2624,1.2594,1.2562,1.2534,1.2509,1.2503,1.2481,1.2482,1.2441,1.2467,1.241,1.2438,1.2419,1.2409,1.2407,1.24,1.243,1.2378,1.2296,1.2285,1.2397,1.2398,1.2399,0,1.2702,1.2651,1.2606,1.2593,1.2564,1.2542,1.2529,1.2506,1.2485,1.2457,1.2443,1.241,1.2392,1.2365,1.2357,1.2377,1.2299,1.2325,1.2291,1.2291,1.2273,1.2274,1.2184,1.2264,1.2264,1.2264,1.2264,0,1.2633,1.2593,1.2584,1.2556,1.2511,1.2508,1.2463,1.2451,1.243,1.2399,1.2403,1.2374,1.2365,1.2333,1.2326,1.2279,1.2271,1.2264,1.2262,1.2262,1.2263,1.2248,1.2251,1.2262,1.2262,1.2263,1.2263,0,1.257,1.2562,1.2513,1.249,1.2484,1.2451,1.2431,1.2403,1.2394,1.2354,1.2345,1.233,1.2292,1.2282,1.2237,1.2232,1.2176,1.2179,1.2184,1.2184,1.215,1.2153,1.2047,1.2032,1.2123,1.2122,1.2121,0,1.2525,1.2495,1.2469,1.2449,1.2435,1.2403,1.2383,1.2378,1.2356,1.2325,1.2301,1.2265,1.2235,1.2175,1.2159,1.2124,1.2125,1.209,1.212,1.2121,1.2122,1.2123,1.212,1.2084,1.2083,1.2082,1.2082,0,1.2446,1.2444,1.2415,1.2384,1.236,1.2335,1.2312,1.2295,1.2286,1.2261,1.2224,1.2201,1.2156,1.2119,1.2084,1.2069,1.2073,1.2073,1.2063,1.2062,1.2066,1.2061,1.2167,1.2075,1.2075,1.2076,1.2076,1.2077,1.239,1.2363,1.2341,1.2308,1.229,1.2267,1.224,1.2228,1.2197,1.2161,1.216,1.2119,1.2094,1.2047,1.203,1.1997,1.2007,1.1993,1.1989,1.1985,1.1981,1.2073,1.1991,1.1991,1.1991,1.1991,1.1991,0,1.231,1.2296,1.2266,1.2233,1.2207,1.2216,1.219,1.2166,1.2131,1.2108,1.2079,1.2036,1.2,1.1982,1.1946,1.1922,1.1923,1.1913,1.1914,1.191,1.1975,1.1987,1.1913,1.1913,1.1913,1.1913,1.1913,1.1913,1.2265,1.2219,1.2214,1.216,1.2146,1.2107,1.2091,1.207,1.2051,1.2003,1.1974,1.1963,1.1941,1.1904,1.1871,1.1866,1.1852,1.184,1.1836,1.1897,1.1905,1.1913,1.1923,1.1837,1.1837,1.1773,1.1772,1.1772]}]]